User: anonymous   Login
Location: Unspecified
(0.0000°N, 0.0000°E)
Time: 10:28:37
(UTC+00:00)
Language:

Symphonie 2 - Orbit

View from above orbital plane
View from above orbital plane
View from above satellite
View from above satellite

Ground track
Ground track

The orbit data is extracted from the following two-line orbital elements,

1  8132U 75077A   18021.55767601 +.00000036 +00000-0 +00000-0 0  9998
2  8132 011.2190 313.8446 0009676 326.7332 225.6986 00.99981945111772
Epoch (UTC): 21 January 2018 13:23:03
Eccentricity: 0.0009676
inclination: 11.2190°
perigee height: 35827 km
apogee height: 35908 km
right ascension of ascending node: 313.8446°
argument of perigee: 326.7332°
revolutions per day: 0.99981945
mean anomaly at epoch: 225.6986°
orbit number at epoch: 11177

The dashed part of the orbit path shows where the satellite is in the earth's shadow,  

DLR